Home   Weather   Reno   Past weeks
Flag for USA

Past Weather in Reno, Nevada, USA — Yesterday and Last 2 Weeks

Now
93 °F

Passing clouds.


Feels Like: 88 °F
Forecast: 92 / 64 °F
Wind: 7 mph from Northwest

Location: Reno Tahoe International Airport

Current Time: Jun 18, 2019 at 6:22:18 pm

Latest Report: Jun 18, 2019 at 4:55 pm


Visibility: 10 mi

Pressure: 29.87 "Hg (25.64 "Hg at 1372m altitude)

Humidity: 11%

Dew Point: 32 °F

Location of RenoLocation

Past Weather in Reno — Graph

°F

Reno Temperature Yesterday

Maximum temperature yesterday: 90 °F (at 4:55 pm)
Minimum temperature yesterday: 62 °F (at 4:55 am)
Average temperature yesterday: 77 °F

High & Low Weather Summary for the Past Weeks

 TemperatureHumidityPressure
High93 °F (Jun 5, 1:55 pm)60% (Jun 4, 4:55 am)30.27 "Hg (Jun 4, 4:55 am)
Low42 °F (Jun 8, 5:55 am)8% (Jun 11, 2:55 pm)29.73 "Hg (Jun 16, 3:55 pm)
Average73 °F28%29.93 "Hg
* Reported Jun 3 4:55 pm — Jun 18 4:55 pm, Reno. Weather by CustomWeather, © 2019

Note: Actual official high and low records may vary slightly from our data, if they occured in-between our weather recording intervals... More about our weather records

Advertising

Reno Weather History for the Previous 24 Hours

Scroll right to see more
 ConditionsComfort  
Time TempWeatherWind HumidityBarometerVisibility
4:55 pm
Tue, Jun 18
93 °FPassing clouds.7 mph11%29.87 "Hg10 mi
3:55 pm89 °FPassing clouds.3 mph12%29.89 "Hg10 mi
2:55 pm89 °FPassing clouds.6 mph12%29.90 "Hg10 mi
1:55 pm88 °FPassing clouds.6 mph11%29.92 "Hg10 mi
12:55 pm85 °FSunny.6 mph16%29.94 "Hg10 mi
11:55 am85 °FSunny.No wind15%29.96 "Hg10 mi
10:55 am80 °FPassing clouds.No wind20%29.98 "Hg10 mi
9:55 am77 °FPassing clouds.No wind23%29.99 "Hg10 mi
8:55 am76 °FPassing clouds.No wind24%29.99 "Hg10 mi
7:55 am71 °FPassing clouds.3 mph31%30.00 "Hg10 mi
6:55 am67 °FPassing clouds.8 mph39%29.99 "Hg10 mi
5:55 am66 °FPassing clouds.6 mph39%29.97 "Hg10 mi
4:55 am68 °FPassing clouds.7 mph36%29.95 "Hg10 mi
3:55 am69 °FPassing clouds.5 mph35%29.94 "Hg10 mi
2:55 am72 °FPassing clouds.9 mph29%29.92 "Hg10 mi
1:55 am74 °FPassing clouds.8 mph27%29.91 "Hg10 mi
12:55 am76 °FPassing clouds.12 mph25%29.90 "Hg10 mi
11:55 pm
Mon, Jun 17
77 °FPassing clouds.9 mph26%29.88 "Hg10 mi
10:55 pm79 °FPassing clouds.3 mph28%29.88 "Hg10 mi
9:55 pm80 °FPassing clouds.6 mph20%29.87 "Hg10 mi
8:55 pm83 °FPartly cloudy.9 mph17%29.84 "Hg10 mi
7:55 pm85 °FBroken clouds.14 mph16%29.83 "Hg10 mi
6:55 pm87 °FScattered clouds.14 mph14%29.81 "Hg10 mi
Weather by CustomWeather, © 2019

See weather overview